FW2172 Weather Reports


time (UTC)temp
C
wind
direction
speed
KPH
gust
KPH
rain 1hr
cm
rain 24hr
cm
rain mn
cm
humidity
%
barometer
mb
20260504160204 15 68 0.0 4.8 0.00 0.00 0.00 31 1007.0
20260504150703 15 68 8.0 8.0 0.00 0.00 0.00 26 1006.0
20260504150204 15 68 8.0 8.0 0.00 0.00 0.00 26 1006.0
20260504141203 16 112 4.8 9.7 0.00 0.00 0.00 24 1004.8
20260504140204 16 68 8.0 11.3 0.00 0.00 0.00 24 1005.0
20260504130704 17 135 1.6 11.3 0.00 0.00 0.00 24 1003.0
20260504130204 17 135 4.8 9.7 0.00 0.00 0.00 24 1003.0
20260504120204 17 176 8.0 12.9 0.00 0.00 0.00 23 1002.0
20260504110703 19 296 6.4 11.3 0.00 0.00 0.00 20 999.0
20260504110204 19 225 4.8 9.7 0.00 0.00 0.00 20 999.0
20260504100204 20 246 14.5 19.3 0.00 0.00 0.00 17 997.0
20260504081703 22 215 16.1 24.1 0.00 0.00 0.00 16 993.0
20260504081203 22 202 16.1 11.3 0.00 0.00 0.00 16 993.0
20260504080704 22 202 16.1 11.3 0.00 0.00 0.00 16 993.0
20260504080204 22 202 16.1 20.9 0.00 0.00 0.00 16 993.0
20260504070204 23 292 11.3 12.9 0.00 0.00 0.00 13 994.0
20260504050703 26 202 11.3 20.9 0.00 0.00 0.00 15 993.0
20260504050204 26 222 12.9 14.5 0.00 0.00 0.00 15 993.0
20260504045705 25 202 11.3 19.3 0.00 0.00 0.00 15 993.0
20260504045204 25 90 11.3 19.3 0.00 0.00 0.00 15 993.0
20260504044704 26 90 11.3 19.3 0.00 0.00 0.00 15 993.0
20260504043703 26 225 11.3 11.3 0.00 0.00 0.00 15 992.0
20260504043204 26 225 14.5 11.3 0.00 0.00 0.00 15 992.0
20260504042703 26 225 14.5 25.7 0.00 0.00 0.00 15 992.0
20260504042205 26 202 14.5 24.1 0.00 0.00 0.00 15 992.0
20260504041203 26 158 9.7 9.7 0.00 0.00 0.00 17 992.0
20260504040704 26 229 16.1 14.5 0.00 0.00 0.00 17 992.0
20260504035704 26 292 12.9 14.5 0.00 0.00 0.00 17 992.8
20260504035204 26 292 12.9 14.5 0.00 0.00 0.00 17 993.0
20260504034704 26 292 12.9 14.5 0.00 0.00 0.00 20 993.0
20260504033704 26 292 12.9 14.5 0.00 0.00 0.00 20 993.0
20260504033204 26 292 12.9 14.5 0.00 0.00 0.00 20 993.0
20260504031705 26 248 11.3 20.9 0.00 0.00 0.00 20 993.0
20260504031204 26 248 11.3 20.9 0.00 0.00 0.00 20 993.0
20260504030704 26 248 11.3 20.9 0.00 0.00 0.00 20 993.0
20260504025704 26 248 11.3 20.9 0.00 0.00 0.00 20 993.8
20260504024704 26 248 11.3 20.9 0.00 0.00 0.00 20 994.0
20260504024204 26 202 9.7 20.9 0.00 0.00 0.00 20 994.0
20260504023703 25 202 9.7 20.9 0.00 0.00 0.00 20 994.0
20260504023204 25 202 9.7 20.9 0.00 0.00 0.00 20 994.0
20260504022703 25 202 9.7 20.9 0.00 0.00 0.00 20 994.0
20260504022204 25 202 9.7 20.9 0.00 0.00 0.00 21 994.0
20260504021704 25 202 9.7 20.9 0.00 0.00 0.00 21 994.0
20260504021204 25 202 9.7 20.9 0.00 0.00 0.00 21 994.0
20260504020204 25 202 9.7 20.9 0.00 0.00 0.00 21 994.0
20260504015704 25 202 9.7 20.9 0.00 0.00 0.00 21 994.0
20260504015204 25 202 9.7 20.9 0.00 0.00 0.00 21 994.0
20260504014704 25 202 9.7 20.9 0.00 0.00 0.00 21 994.0
20260504014204 25 202 9.7 20.9 0.00 0.00 0.00 21 994.0
20260504013704 26 202 9.7 20.9 0.00 0.00 0.00 21 994.0
20260504013205 25 202 9.7 20.9 0.00 0.00 0.00 21 994.0
20260504012704 26 202 9.7 20.9 0.00 0.00 0.00 22 994.8
20260504012205 26 202 9.7 20.9 0.00 0.00 0.00 22 995.0
20260504011204 25 202 9.7 20.9 0.00 0.00 0.00 23 995.0
20260504010704 25 202 9.7 20.9 0.00 0.00 0.00 24 995.0
20260504010203 25 202 9.7 20.9 0.00 0.00 0.00 26 995.0
20260504005703 25 202 9.7 20.9 0.00 0.00 0.00 27 995.0
20260504005204 25 202 9.7 20.9 0.00 0.00 0.00 26 995.0
20260504004705 25 202 9.7 20.9 0.00 0.00 0.00 24 995.0
20260504004204 25 202 9.7 20.9 0.00 0.00 0.00 25 995.0
20260504003704 25 202 8.0 19.3 0.00 0.00 0.00 26 995.0
20260504002704 25 180 8.0 9.7 0.00 0.00 0.00 30 995.0
20260504002204 25 180 8.0 9.7 0.00 0.00 0.00 31 995.0
20260504001704 24 180 8.0 9.7 0.00 0.00 0.00 33 995.0
20260504001204 24 180 8.0 9.7 0.00 0.00 0.00 34 995.0
20260504000704 23 180 8.0 9.7 0.00 0.00 0.00 36 995.0
20260504000204 23 180 8.0 9.7 0.00 0.00 0.00 39 995.0
20260503235704 23 180 8.0 9.7 0.00 0.00 0.00 39 995.8
20260503235204 24 180 8.0 9.7 0.00 0.00 0.00 41 996.0
20260503234704 23 180 8.0 9.7 0.00 0.00 0.00 42 996.0
20260503234204 23 180 8.0 9.7 0.00 0.00 0.00 45 996.0
20260503233705 23 180 8.0 9.7 0.00 0.00 0.00 44 996.0
20260503232705 25 180 8.0 9.7 0.00 0.00 0.00 44 995.3
20260503232203 24 180 8.0 9.7 0.00 0.00 0.00 47 995.0
20260503231703 24 180 8.0 9.7 0.00 0.00 0.00 49 995.0
20260503230704 23 180 8.0 9.7 0.00 0.00 0.00 51 996.0
20260503230205 23 180 8.0 9.7 0.00 0.00 0.00 51 996.0
20260503225704 23 180 8.0 9.7 0.00 0.00 0.00 51 995.3
20260503225204 23 180 8.0 9.7 0.00 0.00 0.00 52 995.0
20260503224704 23 180 8.0 9.7 0.00 0.00 0.00 53 995.0
20260503224204 23 180 8.0 14.5 0.00 0.00 0.00 55 995.8
20260503223204 22 202 9.7 12.9 0.00 0.00 0.00 71 996.0
20260503222705 22 247 9.7 12.9 0.00 0.00 0.00 71 996.0
20260503222204 22 163 8.0 16.1 0.00 0.00 0.00 71 996.0
20260503221704 22 222 8.0 20.9 0.00 0.00 0.00 71 996.0
20260503221203 22 211 8.0 14.5 0.00 0.00 0.00 74 996.0
20260503220704 22 220 9.7 12.9 0.00 0.00 0.00 78 996.0
20260503220204 22 224 6.4 12.9 0.00 0.00 0.00 78 996.0
20260503215704 22 266 9.7 16.1 0.00 0.00 0.00 78 996.7
20260503215205 22 158 9.7 16.1 0.00 0.00 0.00 78 997.0
20260503214704 22 198 8.0 16.1 0.00 0.00 0.00 79 997.0
20260503214204 22 224 9.7 19.3 0.00 0.00 0.00 80 996.3
20260503213704 22 214 9.7 22.5 0.00 0.00 0.00 80 996.0
20260503213203 22 230 9.7 16.1 0.00 0.00 0.00 81 996.0
20260503212704 22 214 12.9 20.9 0.00 0.00 0.00 82 996.0
20260503211204 23 192 14.5 27.4 0.00 0.00 0.00 87 996.0
20260503210204 23 247 12.9 24.1 0.00 0.00 0.00 88 996.0
20260503205204 23 182 19.3 27.4 0.00 0.00 0.00 88 995.0
20260503204704 23 218 20.9 27.4 0.00 0.00 0.00 88 995.0
20260503204205 23 198 24.1 45.1 0.00 0.00 0.00 87 995.0
20260503203704 23 236 25.7 29.0 0.00 0.00 0.00 88 995.0
20260503203204 23 240 20.9 33.8 0.00 0.00 0.00 85 995.0
20260503202204 24 209 20.9 33.8 0.00 0.00 0.00 83 994.0
20260503201703 24 200 25.7 33.8 0.00 0.00 0.00 84 994.0
20260503201204 24 219 19.3 35.4 0.00 0.00 0.00 84 994.8
20260503200203 24 270 20.9 38.6 0.00 0.00 0.00 88 995.0
20260503195704 23 322 16.1 29.0 0.00 0.00 0.00 90 995.0
20260503194704 23 115 22.5 45.1 0.00 0.00 0.00 93 995.0
20260503193704 23 212 19.3 41.8 0.00 0.00 0.00 91 995.0
20260503191704 23 196 14.5 27.4 0.00 0.00 0.00 86 996.0
20260503191203 23 163 16.1 35.4 0.00 0.00 0.00 80 996.0
20260503190704 23 227 14.5 25.7 0.00 0.00 0.00 80 996.0
20260503190204 23 224 14.5 22.5 0.00 0.00 0.00 82 996.0
20260503185705 23 196 16.1 29.0 0.00 0.00 0.00 83 995.3
20260503184704 23 186 16.1 27.4 0.00 0.00 0.00 82 995.0
20260503184203 23 182 14.5 22.5 0.00 0.00 0.00 82 996.5
20260503183703 23 236 16.1 35.4 0.00 0.00 0.00 83 997.0
20260503183204 23 189 14.5 27.4 0.00 0.00 0.00 85 997.0
20260503182704 23 202 12.9 29.0 0.00 0.00 0.00 86 996.3
20260503182205 23 234 19.3 33.8 0.00 0.00 0.00 86 996.0
20260503181704 23 210 16.1 38.6 0.00 0.00 0.00 84 996.0
20260503181204 23 236 14.5 24.1 0.00 0.00 0.00 85 996.8
20260503180704 23 160 14.5 25.7 0.00 0.00 0.00 87 997.0
20260503175704 23 225 17.7 27.4 0.00 0.00 0.00 91 997.8
20260503175204 22 192 12.9 24.1 0.00 0.00 0.00 91 998.0
20260503174705 23 235 14.5 24.1 0.00 0.00 0.00 92 998.0
20260503174204 22 190 12.9 24.1 0.00 0.00 0.00 95 998.0
20260503173205 22 198 16.1 20.9 0.00 0.00 0.00 98 998.0
20260503172204 22 208 11.3 20.9 0.00 0.00 0.00 98 998.0
20260503171704 22 158 12.9 20.9 0.00 0.00 0.00 98 998.0
20260503170703 21 230 6.4 16.1 0.00 0.00 0.00 98 999.0
20260503170204 21 182 8.0 16.1 0.00 0.00 0.00 98 999.0